www.pogodaiklimat.ru

Погода и климат >> Архив погоды >> Кувейт >> Jahra


ПОГОДА в Jahra

  • Прогноз погоды в Jahra
  • Монитор погоды в Jahra
  • Климат города

АРХИВ ПОГОДЫ в Jahra

Время (UTC), дата Ветер
(напр.,м/с)
 
Видим.   Явления Облачность Т
(С)
Тd
(С)
f
(%)
Тe
(С)
Тes
(С)
Комфортность P
(гПа)
Po
(гПа)
Тmin
(С)
Tmax
(С)
R
(мм)
R24
(мм)
S
(см)
18 11.10 Ю 2-4
{7}
н/о н/о +31.6 +11.8 30 +37 +37 очень
душно
1010.5 1011.0
21 11.10 Ю 2-3
{7}
н/о н/о +30.2 +15.2 40 +33 +33 душно 1010.2 1010.0 +26.3 +43.2
00 12.10 ЮВ 4-6
{10}
н/о н/о +28.5 +15.5 45 +31 +31 душно 1010.5 1011.0
03 12.10 ЮЗ 2-3
{6}
н/о н/о +26.7 +14.6 47 +29 +29 жарко 1011.2 1011.0
06 12.10 ЮЗ 2-4
{6}
н/о н/о +35.0 +9.3 21 +34 +34 очень
жарко
1012.0 1012.0
09 12.10 В 1-3
{4}
н/о н/о +42.0 +11.0 16 +39 +39 очень
жарко
1010.5 1011.0
12 12.10 СВ 6-8
{8}
н/о н/о +39.5 +15.6 25 +41 +41 опасность
перегрева
1009.6 1010.0
15 12.10 ЮВ 3-5
{7}
н/о н/о +33.3 +19.0 43 +38 +38 очень
душно
1010.5 1011.0
18 12.10 ЮВ 1-3
{7}
н/о н/о +29.5 +21.2 61 +37 +37 очень
душно
1011.7 1012.0
21 12.10 Ю 1-1
{4}
н/о н/о +26.7 +18.9 62 +32 +32 очень
душно
1012.2 1012.0 +26.6 +42.2
00 13.10 ЮЗ 1-2
{4}
н/о н/о +25.5 +17.2 60 +29 +29 душно 1012.0 1012.0
03 13.10 ЮЗ 2-2
{4}
н/о н/о +25.8 +21.0 75 +32 +32 очень
душно
1012.7 1013.0
06 13.10 СВ 4-7
{9}
н/о н/о +31.2 +20.5 53 +38 +38 очень
душно
1014.5 1015.0
09 13.10 СВ 3-5
{6}
н/о н/о +36.5 +12.8 24 +36 +36 очень
жарко
1013.4 1013.0
12 13.10 СВ 4-6
{6}
н/о н/о +37.1 +19.4 36 +42 +42 опасность
перегрева
1011.9 1012.0
15 13.10 ЮВ 2-4
{6}
н/о н/о +32.5 +22.0 54 +41 +41 опасность
перегрева
1012.5 1013.0
18 13.10 ЮВ 2-3
{6}
н/о н/о +30.1 +22.9 65 +40 +40 очень
душно
1013.7 1014.0
21 13.10 Ю 1-2
{3}
н/о н/о +27.9 +23.0 75 +37 +37 очень
душно
1013.9 1014.0 +24.3 +38.5
00 14.10 З 1-1
{3}
н/о н/о +26.9 +23.7 83 +37 +37 очень
душно
1013.6 1014.0
03 14.10 Ю 1-2
{4}
н/о н/о +26.3 +23.9 87 +36 +36 очень
душно
1014.5 1015.0
06 14.10 Ю 4-6
{7}
н/о н/о +32.1 +21.3 53 +40 +40 очень
душно
1015.2 1015.0
09 14.10 Ю 2-5
{7}
н/о н/о +38.5 +19.4 33 +37 +37 очень
жарко
1013.3 1013.0
12 14.10 СВ 5-7
{7}
н/о н/о +37.5 +18.9 34 +42 +42 опасность
перегрева
1011.5 1012.0
15 14.10 ЮВ 2-4
{7}
н/о н/о +33.0 +20.4 48 +40 +40 очень
душно
1011.9 1012.0
18 14.10 ЮВ 2-3
{7}
н/о н/о +30.0 +22.5 64 +39 +39 очень
душно
1013.2 1013.0
21 14.10 Ю 1-2
{4}
н/о н/о +27.9 +22.2 71 +36 +36 очень
душно
1013.4 1013.0 +25.9 +40.1
00 15.10 ЮЗ 2-5
{6}
н/о н/о +27.3 +22.4 75 +36 +36 очень
душно
1013.0 1013.0
03 15.10 Ю 2-4
{6}
н/о н/о +26.7 +22.5 78 +35 +35 очень
душно
1014.2 1014.0
06 15.10 СВ 8-13
{16}
н/о н/о +29.1 +13.9 39 +31 +31 жарко 1017.4 1017.0
09 15.10 В 5-9
{14}
н/о н/о +34.2 +13.1 28 +35 +35 очень
жарко
1014.8 1015.0
12 15.10 В 2-4
{14}
н/о н/о +35.7 +13.7 27 +36 +36 очень
жарко
1013.4 1013.0
15 15.10 В 2-4
{5}
н/о н/о +32.5 +13.8 32 +34 +34 очень
жарко
1014.0 1014.0
18 15.10 В 1-2
{5}
н/о н/о +28.9 +21.9 66 +37 +37 очень
душно
1014.9 1015.0
21 15.10 ЮЗ 2-2
{2}
н/о н/о +27.5 +16.3 50 +31 +31 душно 1014.1 1014.0 +26.5 +36.2
00 16.10 ЮЗ 2-3
{5}
н/о н/о +26.7 +15.5 50 +30 +30 душно 1013.6 1014.0
03 16.10 ЮЗ 2-4
{4}
н/о н/о +26.7 +15.6 51 +30 +30 душно 1014.6 1015.0
06 16.10 З 2-3
{5}
н/о н/о +31.9 +13.4 32 +33 +33 жарко 1016.0 1016.0
09 16.10 С 3-4
{5}
н/о н/о +35.7 +11.3 23 +35 +35 очень
жарко
1014.0 1014.0
12 16.10 СВ 2-4
{6}
н/о н/о +36.2 +10.0 20 +35 +35 очень
жарко
1012.8 1013.0
15 16.10 СВ 2-2
{4}
н/о н/о +32.9 +9.8 24 +32 +32 жарко 1012.7 1013.0
18 16.10 ЮВ 1-2
{4}
н/о н/о +30.0 +11.8 33 +31 +31 жарко 1013.8 1014.0
21 16.10 З 1-1
{3}
н/о н/о +27.8 +13.9 42 +30 +30 жарко 1013.1 1013.0 +26.2 +37.4
00 17.10 Ю 2-3
{4}
н/о н/о +26.5 +15.9 52 +30 +30 душно 1012.5 1013.0
03 17.10 ЮЗ 2-3
{4}
н/о н/о +26.2 +13.3 45 +28 +28 жарко 1013.4 1013.0
06 17.10 ЮЗ 4-7
{8}
н/о н/о +32.2 +12.9 31 +33 +33 жарко 1014.3 1014.0
09 17.10 С 1-2
{7}
н/о н/о +36.7 +8.2 18 +35 +35 очень
жарко
1012.6 1013.0
12 17.10 СВ 2-3
{7}
н/о н/о +37.4 +6.3 15 +35 +35 очень
жарко
1010.7 1011.0
15 17.10 ЮВ 3-4
{5}
н/о н/о +33.4 +9.1 22 +32 +32 жарко 1011.3 1011.0
18 17.10 ЮВ 1-2
{5}
н/о н/о +29.9 +16.3 44 +33 +33 душно 1012.3 1012.0
21 17.10 Ю 3-4
{4}
н/о н/о +28.0 +16.4 49 +31 +31 душно 1012.1 1012.0 +25.8 +38.8
00 18.10 Ю 4-5
{5}
н/о н/о +27.1 +16.0 51 +30 +30 душно 1011.7 1012.0
03 18.10 Ю 1-1
{6}
н/о н/о +25.7 +14.5 50 +28 +28 жарко 1012.4 1012.0
06 18.10 Ю 3-6
{6}
н/о н/о +33.1 +11.8 27 +33 +33 жарко 1013.1 1013.0
09 18.10 СЗ 1-2
{6}
н/о н/о +37.9 +5.8 14 +35 +35 очень
жарко
1011.8 1012.0
12 18.10 В 4-7
{7}
н/о н/о +37.1 +9.2 18 +35 +35 очень
жарко
1010.2 1010.0
15 18.10 ЮВ 3-5
{7}
н/о н/о +31.2 +17.1 43 +35 +35 очень
душно
1011.0 1011.0

 

Местоположение метеостанции Jahra (Кувейт): широта 29.32 долгота 47.67 высота над уровнем моря 55 м.

В архиве по умолчанию представлена погода в Jahra за последнюю неделю. Архивные данные за месяц целиком и за предыдущие месяцы, начиная с января 2011 года, Вы можете получить, выбрав интересующий диапазон дат из раскрывающегося списка и нажав кнопку "Ввод!".


*Определитесь, кто Вы:
робот инопланетянин человек

Внимание! Время в таблицах - всемирное. Для получения местного времени необходимо прибавить поправку, которая в Jahra равна 3 ч.

Смотрите также архив погоды в соседних городах и на ближайших метеорологических станциях:

Погода в Sulaibiya (Кувейт) (7 км)
Погода в Experimental Farm (Кувейт) (26 км)
Погода в Minagish (Кувейт) (31 км)
Погода в Kuwait (Кувейт) (31 км)
Погода в Jal Aliyah (Кувейт) (33 км)
Погода в Kuwait City (Кувейт) (37 км)
Погода в Al-Shuaiba (Кувейт) (42 км)
Погода в Sabriyah (Кувейт) (51 км)
Погода в Failaka Island (Кувейт) (61 км)
Погода в Mitribah (Кувейт) (63 км)

Пояснения к столбцам:

Ветер - указаны скорость ветра в м/с - средняя за 10 мин, порывы в срок и между сроками (в фигурных скобках) и направление, откуда дует ветер: С - северный, СВ - северо-восточный, В - восточный, ЮВ - юго-восточный, Ю - южный, ЮЗ - юго-западный, З - западный, СЗ - северо-западный.
Видимость - горизонтальная дальность видимости в метрах или километрах. При видимости от 1 до 10 км при отсутствии осадков обычно наблюдается дымка, при ухудшении видимости до 1 км и менее - туман. В сухую погоду видимость может ухудшаться дымом, пылью или мглою.
Явления - указаны атмосферные явления, наблюдавшиеся в срок или в последний час перед сроком; фигурными скобками обозначены явления, наблюдавшиеся между сроками (за 1-3 часа до срока); квадратными скобками обозначены град или гололедные отложения с указанием их диаметра в мм.
Облачность - указаны через наклонную черту общая и нижняя облачность в баллах и высота нижней границы облаков в метрах; квадратными скобками обозначены формы облаков: Ci - перистые, Cs - перисто-слоистые, Cc - перисто-кучевые, Ac - высококучевые, As - высокослоистые, Sc - слоисто-кучевые, Ns - слоисто-дождевые, Cu - кучевые, Cb - кучево-дождевые. Подробнее классификацию облаков см. в Атласе облаков (PDF).
T - Температура воздуха - температура, измеренная на высоте 2 м над землей.
Td - Температура точки росы - температура, при понижении до которой содержащийся в воздухе водяной пар достигнет насыщения.
f - Относительная влажность воздуха - влажноcть воздуха, измеренная на высоте 2 м над землей.
Te - Эффективная температура - температура, которую ощущает одетый по сезону человек в тени. Характеристика душности погоды. При расчете учитывается влияние влажности воздуха и скорости ветра на теплоощущения человека.
Tes - Эффективная температура на солнце - температура, которую ощущает человек, с поправкой на солнечный нагрев. Характеристика знойности погоды. Зависит от высоты солнца над горизонтом, облачности и скорости ветра. Ночью, в пасмурную погоду, а также при ветре 12 м/с и более поправка равна нулю.
P - Атмосферное давление - приведенное к уровню моря атмосферное давление.
Po - Атмосферное давление - измеренное на уровне метеостанции атмосферное давление.
Tmin - Минимальная температура - минимум температуры воздуха на высоте 2 м над землей.
Tmax - Максимальная температура - максимум температуры воздуха на высоте 2 м над землей.
R - Количество осадков - Количество выпавших осадков за период времени, мм. При наведении курсора мыши на число - период времени, за который выпало указанное количество осадков.
R24 - Количество осадков - Количество выпавших осадков за 24 часа, мм.
S - Снежный покров - Высота снежного покрова, см. При наведении курсора мыши на число - состояние снежного покрова и степень покрытия местности в баллах.